Time,TemperatureF,DewpointF,PressureIn,WindDirection,WindDirectionDegrees,WindSpeedMPH,WindSpeedGustMPH,Humidity,HourlyPrecipIn,Conditions,Clouds,dailyrainin,SoftwareType,DateUTC
2014-01-19 00:06:00,12.5,9.0,29.95,SSW,207,8.0,10.0,87,0.00,,,0.00,weatherlink.com 1.10,2014-01-19 06:06:00,
2014-01-19 00:21:00,12.9,10.0,29.94,South,182,9.0,12.0,88,0.00,,,0.00,weatherlink.com 1.10,2014-01-19 06:21:00,
2014-01-19 00:36:00,13.8,11.0,29.95,South,179,7.0,11.0,87,0.00,,,0.00,weatherlink.com 1.10,2014-01-19 06:36:00,
2014-01-19 00:51:00,14.1,11.0,29.93,South,179,10.0,12.0,87,0.00,,,0.00,weatherlink.com 1.10,2014-01-19 06:51:00,
2014-01-19 01:06:00,14.5,11.0,29.92,South,174,7.0,11.0,87,0.00,,,0.00,weatherlink.com 1.10,2014-01-19 07:06:00,
2014-01-19 01:21:00,14.9,12.0,29.92,South,173,10.0,12.0,86,0.00,,,0.00,weatherlink.com 1.10,2014-01-19 07:21:00,
2014-01-19 01:36:00,14.6,11.0,29.92,SSE,168,6.0,13.0,86,0.00,,,0.00,weatherlink.com 1.10,2014-01-19 07:36:00,
2014-01-19 01:51:00,14.8,11.0,29.91,SSE,162,8.0,12.0,86,0.00,,,0.00,weatherlink.com 1.10,2014-01-19 07:51:00,
2014-01-19 02:06:00,15.2,12.0,29.91,SE,142,8.0,12.0,86,0.00,,,0.00,weatherlink.com 1.10,2014-01-19 08:06:00,
2014-01-19 02:21:00,15.6,12.0,29.89,SE,142,13.0,13.0,86,0.00,,,0.00,weatherlink.com 1.10,2014-01-19 08:21:00,
2014-01-19 02:36:00,16.2,13.0,29.89,SE,140,10.0,13.0,86,0.00,,,0.00,weatherlink.com 1.10,2014-01-19 08:36:00,
2014-01-19 02:51:00,16.7,13.0,29.88,SE,145,8.0,11.0,85,0.00,,,0.00,weatherlink.com 1.10,2014-01-19 08:51:00,
2014-01-19 03:06:00,17.4,14.0,29.86,SE,144,10.0,13.0,85,0.00,,,0.00,weatherlink.com 1.10,2014-01-19 09:06:00,
2014-01-19 03:21:00,17.9,14.0,29.87,SSE,149,6.0,15.0,84,0.00,,,0.00,weatherlink.com 1.10,2014-01-19 09:21:00,
2014-01-19 03:36:00,18.1,14.0,29.86,SE,140,10.0,12.0,84,0.00,,,0.00,weatherlink.com 1.10,2014-01-19 09:36:00,
2014-01-19 03:51:00,18.1,14.0,29.84,SE,139,11.0,16.0,84,0.00,,,0.00,weatherlink.com 1.10,2014-01-19 09:51:00,
2014-01-19 04:06:00,18.1,14.0,29.84,SE,132,9.0,13.0,84,0.00,,,0.00,weatherlink.com 1.10,2014-01-19 10:06:00,
2014-01-19 04:21:00,18.5,15.0,29.82,SE,130,12.0,13.0,85,0.00,,,0.00,weatherlink.com 1.10,2014-01-19 10:21:00,
2014-01-19 04:36:00,19.5,16.0,29.81,SSE,151,12.0,15.0,85,0.00,,,0.00,weatherlink.com 1.10,2014-01-19 10:36:00,
2014-01-19 04:51:00,19.9,16.0,29.80,SSE,148,9.0,14.0,85,0.00,,,0.00,weatherlink.com 1.10,2014-01-19 10:51:00,
2014-01-19 05:06:00,19.9,16.0,29.79,SE,145,8.0,12.0,85,0.00,,,0.00,weatherlink.com 1.10,2014-01-19 11:06:00,
2014-01-19 05:22:00,20.0,17.0,29.78,SE,146,5.0,11.0,86,0.00,,,0.00,weatherlink.com 1.10,2014-01-19 11:22:00,
2014-01-19 05:37:00,20.0,17.0,29.77,SE,135,9.0,14.0,86,0.00,,,0.00,weatherlink.com 1.10,2014-01-19 11:37:00,
2014-01-19 05:52:00,20.0,17.0,29.76,SE,130,10.0,13.0,87,0.00,,,0.00,weatherlink.com 1.10,2014-01-19 11:52:00,
2014-01-19 06:07:00,20.6,17.0,29.76,SE,129,12.0,13.0,87,0.00,,,0.00,weatherlink.com 1.10,2014-01-19 12:07:00,
2014-01-19 06:22:00,20.7,17.0,29.77,SE,132,7.0,13.0,87,0.00,,,0.00,weatherlink.com 1.10,2014-01-19 12:22:00,
2014-01-19 06:37:00,20.5,17.0,29.75,SE,131,9.0,11.0,87,0.00,,,0.00,weatherlink.com 1.10,2014-01-19 12:37:00,
2014-01-19 06:52:00,20.7,17.0,29.75,SE,127,10.0,19.0,87,0.00,,,0.00,weatherlink.com 1.10,2014-01-19 12:52:00,
2014-01-19 07:07:00,20.7,17.0,29.75,SE,141,9.0,13.0,87,0.00,,,0.00,weatherlink.com 1.10,2014-01-19 13:07:00,
2014-01-19 07:22:00,21.2,18.0,29.74,SSE,155,8.0,12.0,87,0.00,,,0.00,weatherlink.com 1.10,2014-01-19 13:22:00,
2014-01-19 07:37:00,21.9,18.0,29.75,SSE,156,7.0,12.0,86,0.00,,,0.00,weatherlink.com 1.10,2014-01-19 13:37:00,
2014-01-19 07:52:00,22.3,19.0,29.75,SSE,152,7.0,12.0,86,0.00,,,0.00,weatherlink.com 1.10,2014-01-19 13:52:00,
2014-01-19 08:07:00,23.1,19.0,29.75,SSE,159,8.0,11.0,85,0.00,,,0.00,weatherlink.com 1.10,2014-01-19 14:07:00,
2014-01-19 08:22:00,23.9,20.0,29.74,SSE,165,9.0,12.0,83,0.00,,,0.00,weatherlink.com 1.10,2014-01-19 14:22:00,
2014-01-19 08:37:00,25.0,20.0,29.74,South,169,8.0,12.0,82,0.00,,,0.00,weatherlink.com 1.10,2014-01-19 14:37:00,
2014-01-19 08:52:00,25.5,20.0,29.75,South,172,6.0,14.0,80,0.00,,,0.00,weatherlink.com 1.10,2014-01-19 14:52:00,
2014-01-19 09:07:00,26.3,21.0,29.74,South,178,8.0,12.0,79,0.00,,,0.00,weatherlink.com 1.10,2014-01-19 15:07:00,
2014-01-19 09:22:00,27.2,21.0,29.73,South,186,10.0,16.0,78,0.00,,,0.00,weatherlink.com 1.10,2014-01-19 15:22:00,
2014-01-19 09:37:00,28.0,22.0,29.73,SSW,209,15.0,18.0,77,0.00,,,0.00,weatherlink.com 1.10,2014-01-19 15:37:00,
2014-01-19 09:52:00,29.0,22.0,29.73,SSW,208,10.0,16.0,75,0.00,,,0.00,weatherlink.com 1.10,2014-01-19 15:52:00,
2014-01-19 10:07:00,30.0,22.0,29.73,SSW,209,10.0,15.0,73,0.00,,,0.00,weatherlink.com 1.10,2014-01-19 16:07:00,
2014-01-19 10:22:00,30.6,23.0,29.73,SSW,192,8.0,16.0,73,0.00,,,0.00,weatherlink.com 1.10,2014-01-19 16:22:00,
2014-01-19 10:37:00,31.1,23.0,29.72,SSW,211,6.0,15.0,72,0.00,,,0.00,weatherlink.com 1.10,2014-01-19 16:37:00,
2014-01-19 10:52:00,31.5,23.0,29.73,SW,216,6.0,11.0,72,0.00,,,0.00,weatherlink.com 1.10,2014-01-19 16:52:00,
2014-01-19 11:07:00,32.1,24.0,29.73,SW,215,5.0,11.0,71,0.00,,,0.00,weatherlink.com 1.10,2014-01-19 17:07:00,
2014-01-19 11:22:00,32.5,24.0,29.72,SSW,209,8.0,12.0,71,0.00,,,0.00,weatherlink.com 1.10,2014-01-19 17:22:00,
2014-01-19 11:37:00,33.0,24.0,29.72,SSW,211,10.0,13.0,70,0.00,,,0.00,weatherlink.com 1.10,2014-01-19 17:37:00,
2014-01-19 11:53:00,33.5,25.0,29.70,SW,219,7.0,13.0,70,0.00,,,0.00,weatherlink.com 1.10,2014-01-19 17:53:00,
2014-01-19 12:08:00,34.9,26.0,29.70,SSW,202,0.0,13.0,69,0.00,,,0.00,weatherlink.com 1.10,2014-01-19 18:08:00,
2014-01-19 12:23:00,36.1,26.0,29.67,SSW,192,8.0,14.0,67,0.00,,,0.00,weatherlink.com 1.10,2014-01-19 18:23:00,
2014-01-19 12:38:00,36.5,26.0,29.65,South,178,6.0,15.0,66,0.01,,,0.01,weatherlink.com 1.10,2014-01-19 18:38:00,
2014-01-19 12:53:00,36.9,26.0,29.64,South,175,8.0,15.0,66,0.02,,,0.02,weatherlink.com 1.10,2014-01-19 18:53:00,
2014-01-19 13:08:00,35.7,26.0,29.62,SSE,158,8.0,12.0,67,0.02,,,0.02,weatherlink.com 1.10,2014-01-19 19:08:00,
2014-01-19 13:23:00,34.8,26.0,29.61,SE,142,14.0,19.0,69,0.01,,,0.02,weatherlink.com 1.10,2014-01-19 19:23:00,
2014-01-19 13:38:00,34.8,26.0,29.60,SSE,159,13.0,16.0,69,0.01,,,0.02,weatherlink.com 1.10,2014-01-19 19:38:00,
2014-01-19 13:53:00,35.6,26.0,29.59,South,174,7.0,14.0,68,0.00,,,0.02,weatherlink.com 1.10,2014-01-19 19:53:00,
2014-01-19 14:08:00,35.9,26.0,29.59,South,176,5.0,16.0,67,0.00,,,0.02,weatherlink.com 1.10,2014-01-19 20:08:00,
2014-01-19 14:23:00,36.6,26.0,29.60,South,172,7.0,14.0,66,0.01,,,0.03,weatherlink.com 1.10,2014-01-19 20:23:00,
2014-01-19 14:38:00,37.0,27.0,29.60,SSW,196,5.0,14.0,66,0.01,,,0.03,weatherlink.com 1.10,2014-01-19 20:38:00,
2014-01-19 14:53:00,37.1,27.0,29.60,South,177,6.0,15.0,66,0.01,,,0.03,weatherlink.com 1.10,2014-01-19 20:53:00,
2014-01-19 15:08:00,37.4,27.0,29.60,South,178,10.0,14.0,66,0.00,,,0.03,weatherlink.com 1.10,2014-01-19 21:08:00,
2014-01-19 15:23:00,37.4,27.0,29.61,South,187,6.0,13.0,67,0.00,,,0.03,weatherlink.com 1.10,2014-01-19 21:23:00,
2014-01-19 15:38:00,37.5,28.0,29.61,South,184,6.0,13.0,68,0.00,,,0.03,weatherlink.com 1.10,2014-01-19 21:38:00,
2014-01-19 15:53:00,37.4,27.0,29.61,SSW,207,8.0,14.0,67,0.00,,,0.03,weatherlink.com 1.10,2014-01-19 21:53:00,
2014-01-19 16:08:00,37.0,27.0,29.61,SSW,198,8.0,12.0,68,0.00,,,0.03,weatherlink.com 1.10,2014-01-19 22:08:00,
2014-01-19 16:23:00,36.9,28.0,29.62,SSW,204,6.0,12.0,69,0.00,,,0.03,weatherlink.com 1.10,2014-01-19 22:23:00,
2014-01-19 16:38:00,36.6,28.0,29.62,South,191,5.0,9.0,70,0.00,,,0.03,weatherlink.com 1.10,2014-01-19 22:38:00,
2014-01-19 16:53:00,36.4,28.0,29.62,SSW,205,7.0,9.0,71,0.00,,,0.03,weatherlink.com 1.10,2014-01-19 22:53:00,
2014-01-19 17:08:00,36.2,28.0,29.62,SSW,205,0.0,7.0,71,0.00,,,0.03,weatherlink.com 1.10,2014-01-19 23:08:00,
2014-01-19 17:23:00,35.9,28.0,29.62,SSW,205,0.0,5.0,72,0.00,,,0.03,weatherlink.com 1.10,2014-01-19 23:23:00,
2014-01-19 17:38:00,35.8,28.0,29.63,SSW,205,0.0,0.0,73,0.00,,,0.03,weatherlink.com 1.10,2014-01-19 23:38:00,
2014-01-19 17:53:00,35.6,28.0,29.63,SSW,205,0.0,0.0,74,0.00,,,0.03,weatherlink.com 1.10,2014-01-19 23:53:00,
2014-01-19 18:08:00,35.3,28.0,29.63,SSW,205,0.0,0.0,74,0.00,,,0.03,weatherlink.com 1.10,2014-01-20 00:08:00,
2014-01-19 18:23:00,34.6,28.0,29.64,SSW,205,0.0,0.0,76,0.00,,,0.03,weatherlink.com 1.10,2014-01-20 00:23:00,
2014-01-19 18:38:00,34.1,28.0,29.64,SSW,205,0.0,0.0,77,0.00,,,0.03,weatherlink.com 1.10,2014-01-20 00:38:00,
2014-01-19 18:53:00,34.1,28.0,29.65,SSW,205,0.0,1.0,78,0.00,,,0.03,weatherlink.com 1.10,2014-01-20 00:53:00,
2014-01-19 19:08:00,34.4,28.0,29.65,SSW,205,0.0,5.0,78,0.00,,,0.03,weatherlink.com 1.10,2014-01-20 01:08:00,
2014-01-19 19:23:00,34.9,29.0,29.66,SW,214,8.0,11.0,79,0.00,,,0.03,weatherlink.com 1.10,2014-01-20 01:23:00,
2014-01-19 19:38:00,36.6,30.0,29.66,WSW,240,3.0,13.0,77,0.00,,,0.03,weatherlink.com 1.10,2014-01-20 01:38:00,
2014-01-19 19:53:00,36.8,30.0,29.67,West,265,10.0,19.0,76,0.00,,,0.03,weatherlink.com 1.10,2014-01-20 01:53:00,
2014-01-19 20:08:00,36.7,30.0,29.67,West,265,10.0,18.0,76,0.00,,,0.03,weatherlink.com 1.10,2014-01-20 02:08:00,
2014-01-19 20:23:00,36.6,30.0,29.68,West,271,10.0,14.0,77,0.00,,,0.03,weatherlink.com 1.10,2014-01-20 02:23:00,
2014-01-19 20:38:00,36.6,30.0,29.69,West,275,9.0,16.0,77,0.00,,,0.03,weatherlink.com 1.10,2014-01-20 02:38:00,
2014-01-19 20:53:00,36.8,30.0,29.70,West,276,12.0,19.0,76,0.00,,,0.03,weatherlink.com 1.10,2014-01-20 02:53:00,
2014-01-19 21:08:00,36.7,30.0,29.71,West,259,4.0,14.0,76,0.00,,,0.03,weatherlink.com 1.10,2014-01-20 03:08:00,
2014-01-19 21:23:00,36.7,30.0,29.71,NW,306,10.0,13.0,76,0.00,,,0.03,weatherlink.com 1.10,2014-01-20 03:23:00,
2014-01-19 21:38:00,36.7,29.0,29.71,NW,306,11.0,20.0,75,0.00,,,0.03,weatherlink.com 1.10,2014-01-20 03:38:00,
2014-01-19 21:53:00,36.7,29.0,29.73,NW,310,7.0,14.0,75,0.00,,,0.03,weatherlink.com 1.10,2014-01-20 03:53:00,
2014-01-19 22:08:00,36.5,30.0,29.74,West,261,9.0,14.0,76,0.00,,,0.03,weatherlink.com 1.10,2014-01-20 04:08:00,
2014-01-19 22:23:00,36.3,30.0,29.74,NNW,329,11.0,18.0,77,0.00,,,0.03,weatherlink.com 1.10,2014-01-20 04:23:00,
2014-01-19 22:38:00,35.7,29.0,29.76,NNW,345,14.0,15.0,78,0.00,,,0.03,weatherlink.com 1.10,2014-01-20 04:38:00,
2014-01-19 22:53:00,34.7,29.0,29.77,NW,320,7.0,13.0,78,0.00,,,0.03,weatherlink.com 1.10,2014-01-20 04:53:00,
2014-01-19 23:08:00,34.3,28.0,29.78,WNW,300,6.0,11.0,78,0.00,,,0.03,weatherlink.com 1.10,2014-01-20 05:08:00,
2014-01-19 23:23:00,34.1,28.0,29.78,NNW,328,6.0,9.0,79,0.00,,,0.03,weatherlink.com 1.10,2014-01-20 05:23:00,
2014-01-19 23:38:00,33.9,28.0,29.79,NNW,336,6.0,9.0,79,0.00,,,0.03,weatherlink.com 1.10,2014-01-20 05:38:00,
2014-01-19 23:53:00,33.8,28.0,29.80,NNW,327,1.0,9.0,80,0.00,,,0.03,weatherlink.com 1.10,2014-01-20 05:53:00,